Terug naar catalogus

SDGSAT 1

ActiefWetenschapSSO
NORAD 49387·PAYLOAD·🇨🇳 China

Gelanceerd Nov 5, 2021 vanaf Taiyuan Satellite Launch Center

Loading…

Volgende Passages (komende 24 uur)

TLE

VersSource: Space-Track

Epoch: Sep 14, 2026, 14:30 UTC

1 49387U 21100A   26257.60481480  .00001549  00000-0  76039-4 0  9996
2 49387  97.2549 301.1154 0008481 328.1895  31.8827 15.19478681269490

Volg SDGSAT 1 in realtime met AllMySat

Download on the App Store